Quillayute, WA

4:55 AM PDT on March 29, 2017 (GMT -0700)
Quillayute

Weather History for KUIL - June, 2013

Change the Weather History Date:

Tuesday, June 11, 2013

  Actual Average Record
Temperature  
Mean Temperature 56 °F 55 °F  
Max Temperature 62 °F 62 °F 77 °F (1999)
Min Temperature 49 °F 47 °F 39 °F (2001)
Degree Days  
Heating Degree Days 9 10  
Month to date heating degree days 90 120  
Since 1 June heating degree days 90 120  
Since 1 July heating degree days 5159 5588  
Cooling Degree Days 0 0  
Month to date cooling degree days 0 0  
Year to date cooling degree days 3 1  
Since 1 June cooling degree days 0 0  
Growing Degree Days 6 (Base 50)    
Moisture  
Dew Point 49 °F    
Average Humidity 77    
Maximum Humidity 89    
Minimum Humidity 64    
Precipitation  
Precipitation 0.32 in 0.13 in 2.23 in (2000)
Month to date precipitation 0.39 1.53  
Year to date precipitation 56.29 50.28  
Sea Level Pressure  
Sea Level Pressure 30.04 in    
Wind  
Wind Speed 5 mph (SSW)    
Max Wind Speed 16 mph    
Max Gust Speed 22 mph    
Visibility 5 miles    
Events Rain    
T = Trace of Precipitation, MM = Missing Value Source: NWS Daily Summary

Daily Weather History Graph

Daily Weather History Graph

Search for Another Location

Airport or City:

Trip Planner

Search our weather history database for the weather conditions in past years. The results will help you decide how hot, cold, wet, or windy it might be!

Date:

Astronomy

Jun. 11, 2013 Rise Set
Actual Time 5:18 AM PDT 9:17 PM PDT
Civil Twilight 4:37 AM PDT 9:58 PM PDT
Nautical Twilight 3:41 AM PDT 10:55 PM PDT
Astronomical Twilight 2:09 AM PDT 12:27 AM PDT
Moon 8:17 AM PDT (6/11) 11:11 PM PDT (6/11)
Length of Visible Light 17h 20m
Length of Day
15h 58m
Waxing Crescent, 9% of the Moon is Illuminated
Jun 11
Waxing Crescent
Jun 16
First Quarter
Jun 23
Full
Jun 29
Last Quarter
Jul 8
New

Hourly Weather History & Observations

Time (PDT) Temp. Dew Point Humidity Pressure Visibility Wind Dir Wind Speed Gust Speed Precip Events Conditions
12:53 AM 52.0 °F 48.0 °F 86% 29.98 in 6.0 mi Calm Calm - N/A   Mostly Cloudy
1:53 AM 50.0 °F 46.0 °F 86% 29.97 in 5.0 mi Calm Calm - N/A   Scattered Clouds
2:43 AM 48.2 °F 44.6 °F 87% 29.97 in 3.0 mi Calm Calm - N/A   Mostly Cloudy
2:53 AM 50.0 °F 46.0 °F 86% 29.97 in 6.0 mi Calm Calm - N/A   Overcast
3:21 AM 51.8 °F 46.4 °F 82% 29.97 in 5.0 mi Calm Calm - 0.00 in   Overcast
3:26 AM 50.0 °F 46.4 °F 87% 29.97 in 5.0 mi Calm Calm - 0.00 in Rain Light Rain
3:42 AM 51.8 °F 46.4 °F 82% 29.97 in 5.0 mi Calm Calm - 0.00 in Rain Light Rain
3:53 AM 51.1 °F 46.9 °F 86% 29.97 in 5.0 mi Calm Calm - 0.00 in   Overcast
4:16 AM 51.8 °F 46.4 °F 82% 29.96 in 2.5 mi East 3.5 mph - 0.01 in Rain Light Rain
4:27 AM 51.8 °F 46.4 °F 82% 29.96 in 3.0 mi Calm Calm - 0.03 in Rain Light Rain
4:53 AM 51.1 °F 46.9 °F 86% 29.97 in 5.0 mi Calm Calm - 0.03 in   Overcast
5:46 AM 51.8 °F 46.4 °F 82% 29.97 in 2.5 mi Calm Calm - N/A   Overcast
5:53 AM 51.1 °F 46.9 °F 86% 29.98 in 2.5 mi Calm Calm - N/A   Overcast
6:20 AM 51.8 °F 48.2 °F 88% 29.98 in 3.0 mi Calm Calm - 0.00 in Rain Light Rain
6:40 AM 51.8 °F 48.2 °F 88% 29.98 in 4.0 mi Calm Calm - 0.00 in   Mostly Cloudy
6:53 AM 52.0 °F 48.0 °F 86% 29.99 in 4.0 mi Calm Calm - 0.00 in   Mostly Cloudy
7:31 AM 53.6 °F 50.0 °F 88% 29.99 in 4.0 mi SSW 3.5 mph - 0.00 in Rain Light Rain
7:49 AM 53.6 °F 48.2 °F 82% 29.99 in 5.0 mi SSW 4.6 mph - 0.00 in   Haze
7:53 AM 54.0 °F 48.9 °F 83% 29.99 in 5.0 mi SW 4.6 mph - 0.00 in   Haze
8:53 AM 54.0 °F 48.9 °F 83% 30.00 in 5.0 mi South 4.6 mph - 0.00 in Rain Light Rain
9:13 AM 55.4 °F 50.0 °F 82% 30.00 in 5.0 mi Variable 4.6 mph - 0.00 in Rain Light Rain
9:53 AM 55.0 °F 50.0 °F 83% 30.01 in 5.0 mi SSW 8.1 mph - 0.01 in Rain Light Rain
10:08 AM 55.4 °F 50.0 °F 82% 30.01 in 6.0 mi South 8.1 mph - 0.00 in   Haze
10:25 AM 55.4 °F 48.2 °F 77% 30.02 in 6.0 mi South 3.5 mph - 0.00 in   Haze
10:32 AM 57.2 °F 51.8 °F 82% 30.02 in 6.0 mi South 5.8 mph - 0.00 in   Haze
10:41 AM 57.2 °F 51.8 °F 82% 30.02 in 6.0 mi Variable 6.9 mph - 0.00 in   Haze
10:53 AM 57.0 °F 50.0 °F 77% 30.02 in 6.0 mi SSE 4.6 mph - 0.00 in   Haze
11:04 AM 57.2 °F 50.0 °F 77% 30.02 in 6.0 mi South 5.8 mph - N/A   Haze
11:38 AM 59.0 °F 50.0 °F 72% 30.03 in 7.0 mi SW 9.2 mph - N/A   Overcast
11:53 AM 60.1 °F 50.0 °F 69% 30.04 in 8.0 mi South 8.1 mph - N/A   Overcast
12:16 PM 60.8 °F 50.0 °F 68% 30.04 in 8.0 mi Variable 5.8 mph - N/A   Overcast
12:53 PM 55.9 °F 50.0 °F 80% 30.05 in 1.5 mi WSW 8.1 mph 17.3 mph 0.02 in Rain Heavy Rain
1:02 PM 55.4 °F 51.8 °F 88% 30.05 in 3.0 mi SSW 5.8 mph - 0.01 in Rain Light Rain
1:53 PM 60.1 °F 51.1 °F 72% 30.06 in 8.0 mi SW 12.7 mph - 0.01 in   Mostly Cloudy
2:53 PM 60.1 °F 48.0 °F 64% 30.06 in 8.0 mi SSW 10.4 mph 19.6 mph N/A   Scattered Clouds
3:16 PM 60.8 °F 48.2 °F 63% 30.06 in 8.0 mi SSW 10.4 mph 18.4 mph N/A   Mostly Cloudy
3:53 PM 61.0 °F 50.0 °F 67% 30.07 in 7.0 mi SSW 15.0 mph 19.6 mph N/A   Overcast
4:24 PM 60.8 °F 48.2 °F 63% 30.07 in 8.0 mi SSW 10.4 mph 18.4 mph N/A   Overcast
4:53 PM 57.9 °F 48.0 °F 70% 30.08 in 8.0 mi SSW 13.8 mph - N/A   Overcast
5:01 PM 59.0 °F 48.2 °F 67% 30.07 in 8.0 mi SSW 11.5 mph - N/A   Overcast
5:53 PM 55.9 °F 48.0 °F 75% 30.09 in 5.0 mi SW 12.7 mph 18.4 mph 0.00 in Rain Light Rain
6:06 PM 55.4 °F 48.2 °F 77% 30.08 in 6.0 mi South 5.8 mph - 0.00 in Rain Light Rain
6:20 PM 53.6 °F 48.2 °F 82% 30.08 in 2.0 mi Variable 5.8 mph - 0.01 in Rain Light Rain
6:31 PM 53.6 °F 50.0 °F 88% 30.08 in 2.5 mi South 8.1 mph - 0.03 in Rain Light Rain
6:46 PM 53.6 °F 48.2 °F 82% 30.08 in 1.5 mi South 5.8 mph - 0.03 in Rain Light Rain
6:53 PM 54.0 °F 50.0 °F 86% 30.09 in 2.5 mi South 5.8 mph - 0.04 in Rain Light Rain
7:08 PM 53.6 °F 50.0 °F 88% 30.08 in 1.2 mi Variable 4.6 mph - 0.02 in Rain Rain
7:18 PM 53.6 °F 50.0 °F 88% 30.09 in 0.8 mi SSW 6.9 mph - 0.08 in Rain Rain
7:25 PM 53.6 °F 50.0 °F 88% 30.09 in 1.0 mi SW 5.8 mph - 0.10 in Rain Rain
7:30 PM 53.6 °F 50.0 °F 88% 30.09 in 1.5 mi SW 5.8 mph - 0.10 in Rain Light Rain
7:35 PM 53.6 °F 50.0 °F 88% 30.09 in 3.0 mi SSW 4.6 mph - 0.11 in Rain Light Rain
7:53 PM 53.1 °F 50.0 °F 89% 30.09 in 1.8 mi South 6.9 mph - 0.12 in Rain Light Rain
8:20 PM 53.6 °F 50.0 °F 88% 30.09 in 3.0 mi SSW 6.9 mph - 0.04 in Rain Light Rain
8:38 PM 53.6 °F 50.0 °F 88% 30.09 in 2.5 mi SSW 4.6 mph - 0.06 in Rain Light Rain
8:46 PM 53.6 °F 50.0 °F 88% 30.09 in 3.0 mi South 4.6 mph - 0.06 in Rain Light Rain
8:53 PM 54.0 °F 50.0 °F 86% 30.09 in 5.0 mi South 3.5 mph - 0.06 in Rain Light Rain
9:02 PM 53.6 °F 50.0 °F 88% 30.09 in 6.0 mi SSW 3.5 mph - 0.00 in   Overcast
9:10 PM 53.6 °F 50.0 °F 88% 30.09 in 6.0 mi South 3.5 mph - 0.00 in   Overcast
9:53 PM 53.1 °F 50.0 °F 89% 30.11 in 7.0 mi Calm Calm - 0.00 in   Overcast
10:01 PM 53.6 °F 50.0 °F 88% 30.11 in 7.0 mi Calm Calm - N/A   Overcast
10:24 PM 53.6 °F 48.2 °F 82% 30.11 in 7.0 mi Calm Calm - N/A   Overcast
10:31 PM 53.6 °F 50.0 °F 88% 30.11 in 7.0 mi Calm Calm - N/A   Overcast
10:49 PM 53.6 °F 48.2 °F 82% 30.11 in 8.0 mi Calm Calm - N/A   Overcast
10:53 PM 53.1 °F 48.9 °F 86% 30.11 in 8.0 mi Calm Calm - N/A   Overcast
11:01 PM 53.6 °F 48.2 °F 82% 30.11 in 7.0 mi Calm Calm - N/A   Overcast
11:07 PM 53.6 °F 48.2 °F 82% 30.11 in 8.0 mi Variable 3.5 mph - N/A   Overcast
11:43 PM 51.8 °F 48.2 °F 88% 30.10 in 6.0 mi Calm Calm - N/A   Overcast
11:53 PM 52.0 °F 48.9 °F 89% 30.11 in 4.0 mi Calm Calm - 0.00 in Rain Light Rain